This is the latest recevied weather packets stored in our database for station/object KO4MMQ-10. If no packets are shown the sender has not sent any weather packets the latest 10 day(s).
| Time | Temp. | Humidity | Pressure | Rain* | Wind** | Luminosity | Snow |
|---|---|---|---|---|---|---|---|
| 1777711709 | 8.33° C | 79% | 1016 hPa | 0 mm | - | - | - |
| 1777711107 | 8.33° C | 81% | 1016.1 hPa | 0 mm | - | - | - |
| 1777708107 | 9.44° C | 74% | 1016.2 hPa | 0 mm | - | - | - |
| 1777707508 | 10° C | 73% | 1016.3 hPa | 0 mm | - | - | - |
| 1777705707 | 11.11° C | 68% | 1016.3 hPa | 0 mm | - | - | - |
| 1777705108 | 11.67° C | 65% | 1016.4 hPa | 0 mm | - | - | - |
| 1777702708 | 12.22° C | 61% | 1016.7 hPa | 0 mm | - | - | - |
| 1777701508 | 12.78° C | 58% | 1016.8 hPa | 0 mm | - | - | - |
| 1777700308 | 12.78° C | 58% | 1016.8 hPa | 0 mm | - | - | - |
| 1777699709 | 12.78° C | 57% | 1016.7 hPa | 0 mm | - | - | - |
| 1777697908 | 12.78° C | 56% | 1016.5 hPa | 0 mm | - | - | - |
| 1777696708 | 13.33° C | 54% | 1016.5 hPa | 0 mm | - | - | - |
| 1777694908 | 13.33° C | 53% | 1016 hPa | 0 mm | - | - | - |
| 1777692508 | 13.89° C | 55% | 1016.1 hPa | 0 mm | - | - | - |
| 1777691309 | 13.89° C | 55% | 1016 hPa | 0 mm | - | - | - |
| 1777690108 | 13.89° C | 58% | 1016.5 hPa | 0 mm | - | - | - |
| 1777689508 | 13.89° C | 56% | 1016.6 hPa | 0 mm | - | - | - |
| 1777688908 | 13.89° C | 60% | 1016.8 hPa | 0 mm | - | - | - |
| 1777688308 | 13.89° C | 60% | 1016.8 hPa | 0 mm | - | - | - |
| 1777687708 | 13.89° C | 56% | 1016.8 hPa | 0 mm | - | - | - |
| 1777687108 | 14.44° C | 53% | 1016.7 hPa | 0 mm | - | - | - |
| 1777686508 | 14.44° C | 55% | 1016.7 hPa | 0 mm | - | - | - |
| 1777684108 | 15° C | 53% | 1015.6 hPa | 0 mm | - | - | - |
| 1777682308 | 15.56° C | 54% | 1015.5 hPa | 0 mm | - | - | - |
| 1777681108 | 16.11° C | 50% | 1015.2 hPa | 0 mm | - | - | - |
* Rain latest hour (hover to see other rain measurements)
** Current wind speed in m/s (hover to see current wind gust speed)